Location: Baumgartsau
(48.4586°N, 14.0864°E)
Time: 15:43:31
(UTC+00:00)

BREEZE M DEB (TANK) - Pass Details

Date: 14 May 2021
Orbit: 296 x 11843 km, 49.5° (Epoch: 14 June)

Event Time Altitude Azimuth Distance (km) Brightness Sun altitude
Rises 23:28:14 0° 301° (WNW) 7,558 8.4 -22.4°
Reaches altitude 10° 23:33:10 10° 291° (WNW) 7,622 8.2 -22.3°
Maximum altitude 23:58:17 29° 246° (WSW) 10,363 8.3 -21.4°
Enters shadow 00:35:52 18° 215° (SW) 14,666 8.8 -19.3°
